Houston Hull, TX

4:41 AM CST on December 09, 2019 (GMT -0600)
Sugar Land Municipal-Hull

Weather History for KSGR - October, 2019

Change the Weather History Date:

Friday, October 25, 2019

  Actual Average Record
Temperature  
Mean Temperature 61 °F -  
Max Temperature 72 °F 78 °F 91 °F (1947)
Min Temperature 50 °F 56 °F 37 °F (2005)
Degree Days  
Heating Degree Days 4    
Growing Degree Days 11 (Base 50)    
Moisture  
Dew Point 51 °F    
Average Humidity 87    
Maximum Humidity 97    
Minimum Humidity 72    
Precipitation  
Precipitation 0.84 in - - ()
Sea Level Pressure  
Sea Level Pressure 29.99 in    
Wind  
Wind Speed 16 mph (NNW)    
Max Wind Speed 23 mph    
Max Gust Speed 33 mph    
Visibility 8 miles    
Events Rain    
Averages and records for this station are not official NWS values.
T = Trace of Precipitation, MM = Missing Value Source: NWS Daily Summary

Daily Weather History Graph

Daily Weather History Graph

Search for Another Location

Airport or City:

Astronomy

Oct. 25, 2019 Rise Set
Actual Time 7:30 AM CDT 6:42 PM CDT
Civil Twilight 7:06 AM CDT 7:06 PM CDT
Nautical Twilight 6:38 AM CDT 7:34 PM CDT
Astronomical Twilight 6:10 AM CDT 8:02 PM CDT
Moon 4:35 AM CDT (10/25) 5:27 PM CDT (10/25)
Length of Visible Light 12h 00m
Length of Day
11h 11m
Waning Crescent, 9% of the Moon is Illuminated
Oct 25
Waning Crescent
Oct 27
New
Nov 4
First Quarter
Nov 12
Full
Nov 19
Last Quarter

Hourly Weather History & Observations

Time (CDT) Temp. Dew Point Humidity Pressure Visibility Wind Dir Wind Speed Gust Speed Precip Events Conditions
12:53 AM 72.0 °F 69.1 °F 91% 29.95 in 10.0 mi ENE 6.9 mph - N/A   Overcast
1:46 AM 66.0 °F 63.0 °F 90% 29.95 in 4.0 mi NNW 18.4 mph 26.5 mph 0.03 in Rain Heavy Rain
1:51 AM 64.4 °F 62.6 °F 94% 29.94 in 1.8 mi NNW 20.7 mph 29.9 mph 0.06 in Rain Heavy Rain
1:53 AM 64.0 °F 62.1 °F 93% 29.94 in 1.5 mi NNW 21.9 mph 29.9 mph 0.07 in Rain Heavy Rain
2:01 AM 63.0 °F 62.1 °F 97% 29.94 in 2.0 mi NNW 18.4 mph 28.8 mph 0.04 in Rain Heavy Rain
2:08 AM 63.0 °F 62.1 °F 97% 29.95 in 6.0 mi NNW 15.0 mph 28.8 mph 0.07 in Rain Light Rain
2:36 AM 59.0 °F 57.9 °F 96% 29.98 in 2.5 mi NNW 13.8 mph 21.9 mph 0.17 in Rain Heavy Rain
2:42 AM 59.0 °F 57.9 °F 96% 29.98 in 3.0 mi NNW 18.4 mph 25.3 mph 0.19 in Rain Heavy Rain
2:53 AM 57.9 °F 57.0 °F 97% 29.98 in 10.0 mi NNW 17.3 mph 24.2 mph 0.22 in Rain Light Rain
3:00 AM 57.9 °F 57.0 °F 97% 29.97 in 8.0 mi NW 17.3 mph 24.2 mph 0.02 in Rain Heavy Rain
3:09 AM 57.0 °F 55.9 °F 96% 29.97 in 3.0 mi NW 16.1 mph 26.5 mph 0.05 in Rain Heavy Rain
3:33 AM 55.0 °F 54.0 °F 96% 29.98 in 7.0 mi NW 17.3 mph 24.2 mph 0.12 in Rain Heavy Rain
3:49 AM 55.4 °F 53.6 °F 94% 29.97 in 10.0 mi NNW 16.1 mph 24.2 mph 0.16 in Rain Light Rain
3:53 AM 54.0 °F 53.1 °F 97% 29.97 in 10.0 mi NNW 16.1 mph - 0.17 in Rain Light Rain
4:53 AM 54.0 °F 52.0 °F 93% 29.97 in 10.0 mi NNW 16.1 mph 24.2 mph 0.14 in   Overcast
5:08 AM 53.1 °F 51.1 °F 93% 29.95 in 10.0 mi NNW 17.3 mph 27.6 mph 0.03 in   Overcast
5:53 AM 53.1 °F 51.1 °F 93% 29.97 in 10.0 mi NNW 17.3 mph 26.5 mph 0.04 in   Overcast
6:00 AM 53.1 °F 51.1 °F 93% 29.97 in 10.0 mi NNW 15.0 mph 26.5 mph N/A   Overcast
6:53 AM 53.1 °F 51.1 °F 93% 30.01 in 10.0 mi North 16.1 mph 25.3 mph 0.03 in Rain Light Rain
7:11 AM 52.0 °F 50.0 °F 93% 29.99 in 10.0 mi NNW 16.1 mph 26.5 mph 0.02 in Rain Light Rain
7:53 AM 52.0 °F 50.0 °F 93% 30.00 in 9.0 mi NNW 18.4 mph 27.6 mph 0.04 in Rain Rain
8:53 AM 51.1 °F 48.9 °F 92% 30.01 in 10.0 mi NNW 16.1 mph 28.8 mph 0.05 in Rain Rain
9:04 AM 51.1 °F 50.0 °F 96% 30.00 in 10.0 mi NNW 17.3 mph 25.3 mph 0.01 in Rain Rain
9:53 AM 50.0 °F 48.0 °F 93% 30.04 in 10.0 mi NNW 16.1 mph 27.6 mph 0.06 in   Overcast
10:22 AM 50.0 °F 48.0 °F 93% 30.05 in 10.0 mi NNW 16.1 mph 26.5 mph 0.02 in   Overcast
10:53 AM 50.0 °F 46.9 °F 89% 30.06 in 10.0 mi NNW 19.6 mph 29.9 mph 0.02 in   Overcast
11:53 AM 51.1 °F 46.9 °F 86% 30.05 in 10.0 mi North 23.0 mph 29.9 mph N/A   Overcast
12:07 PM 52.0 °F 46.9 °F 83% 30.05 in 10.0 mi NNW 18.4 mph 29.9 mph N/A   Overcast
12:53 PM 52.0 °F 46.9 °F 83% 30.03 in 10.0 mi NNW 18.4 mph 27.6 mph N/A   Overcast
1:53 PM 55.0 °F 46.9 °F 74% 30.00 in 10.0 mi NNW 20.7 mph 28.8 mph N/A   Overcast
2:53 PM 55.0 °F 46.9 °F 74% 29.99 in 10.0 mi NNW 16.1 mph 27.6 mph N/A   Overcast
3:53 PM 55.0 °F 46.9 °F 74% 29.99 in 10.0 mi NNW 13.8 mph 26.5 mph N/A   Overcast
4:53 PM 55.0 °F 46.9 °F 74% 29.98 in 10.0 mi NW 12.7 mph 21.9 mph N/A   Overcast
5:53 PM 55.0 °F 46.9 °F 74% 29.98 in 10.0 mi NNW 15.0 mph 26.5 mph N/A   Overcast
6:53 PM 55.0 °F 46.0 °F 72% 30.00 in 10.0 mi NNW 16.1 mph 24.2 mph N/A   Overcast
7:53 PM 54.0 °F 45.0 °F 72% 30.00 in 10.0 mi NNW 17.3 mph 33.4 mph N/A   Overcast
8:53 PM 53.1 °F 46.0 °F 77% 30.01 in 10.0 mi NNW 10.4 mph 26.5 mph N/A   Overcast
9:26 PM 53.1 °F 45.0 °F 74% 29.99 in 10.0 mi NNW 20.7 mph 27.6 mph N/A   Overcast
9:53 PM 53.1 °F 45.0 °F 74% 30.00 in 10.0 mi NW 15.0 mph 26.5 mph N/A   Overcast
10:26 PM 53.1 °F 45.0 °F 74% 29.99 in 10.0 mi NNW 15.0 mph 27.6 mph N/A   Overcast
10:53 PM 52.0 °F 45.0 °F 77% 29.99 in 10.0 mi NNW 16.1 mph 26.5 mph N/A   Overcast
11:53 PM 52.0 °F 45.0 °F 77% 29.98 in 10.0 mi NW 12.7 mph 20.7 mph N/A   Overcast